Location: Newark
(52.7309°N, 9.0270°W)
Time: 12:03:45
(UTC+00:00)

Envisat - Visible Passes

Search period start: 25 January 2020 00:00
Search period end: 04 February 2020 00:00
Orbit: 764 x 766 km, 98.1° (Epoch: 25 January)

Date Brightness Start Highest point End Pass type
(mag) Time Alt. Az. Time Alt. Az. Time Alt. Az.
25 Jan 5.7 06:12:40 10° NE 06:16:24 20° E 06:20:08 10° SE visible
25 Jan 3.0 07:50:53 10° NNE 07:55:59 72° WNW 08:01:03 10° SSW visible
25 Jan 4.9 19:12:15 10° SSW 19:16:44 31° W 19:21:16 10° NNW visible
26 Jan 3.7 07:14:07 10° NNE 07:19:10 60° E 07:24:12 10° S visible
26 Jan 3.6 18:34:43 10° S 18:39:44 60° W 18:44:48 10° NNW visible
27 Jan 5.0 06:37:38 10° NNE 06:42:10 31° E 06:46:40 10° SSE visible
27 Jan 3.0 17:57:52 10° SSE 18:02:56 73° ENE 18:08:01 10° NNW visible
27 Jan 5.7 19:38:48 10° SW 19:42:31 20° W 19:46:14 10° NW visible
28 Jan 6.0 06:01:44 10° NE 06:04:58 17° E 06:08:11 10° SE visible
28 Jan 3.0 07:39:34 10° NNE 07:44:42 86° WNW 07:49:47 10° SSW visible
28 Jan 4.6 19:00:39 10° SSW 19:05:21 38° W 19:10:06 10° NNW visible
29 Jan 4.1 07:02:52 10° NNE 07:07:50 50° E 07:12:45 10° S visible
29 Jan 3.3 18:23:20 10° S 18:28:25 73° WSW 18:33:32 10° NNW visible
29 Jan 6.3 20:06:15 10° WSW 20:08:22 12° W 20:10:30 10° WNW visible
30 Jan 5.3 06:26:31 10° NE 06:30:47 26° E 06:35:01 10° SSE visible
30 Jan 3.1 17:46:40 10° SSE 17:51:39 60° ENE 17:56:41 10° N visible
30 Jan 5.4 19:26:59 10° SW 19:31:05 24° W 19:35:12 10° NW visible
31 Jan 6.2 05:50:59 10° NE 05:53:30 14° E 05:56:02 10° ESE visible
31 Jan 3.2 07:28:16 10° NNE 07:33:24 79° ESE 07:38:29 10° SSW visible
31 Jan 4.2 18:49:08 10° S 18:53:59 46° W 18:58:54 10° NNW visible
01 Feb 4.5 06:51:39 10° NNE 06:56:29 41° E 07:01:15 10° SSE visible
01 Feb 3.1 18:12:01 10° SSE 18:17:07 87° WSW 18:22:14 10° NNW visible
01 Feb 6.1 19:53:57 10° WSW 19:56:54 15° W 19:59:52 10° NW visible
02 Feb 5.7 06:15:27 10° NE 06:19:21 22° E 06:23:14 10° SE visible
02 Feb 5.1 19:15:17 10° SSW 19:19:41 29° W 19:24:07 10° NNW visible
03 Feb 6.4 05:40:40 10° ENE 05:42:01 11° E 05:43:22 10° E visible
03 Feb 3.5 07:17:00 10° NNE 07:22:05 65° ESE 07:27:08 10° S visible
03 Feb 3.8 18:37:40 10° S 18:42:39 56° W 18:47:40 10° NNW visible
